WetterOnline ( http://www.wetteronline.ch )

Wetter aktuell Burg b. Magdeburg

Aktuelles Wetter: Genthin (39m)

6-stündlich | Neueste Meldungen
Ortszeit Temperatur Wetter
Sa, 16.02. 19:00 5.7° C wolkig
Sa, 16.02. 13:00 14.4° C wolkenlos
Sa, 16.02. 7:00 -0.1° C wolkenlos
Sa, 16.02. 1:00 3.6° C wolkenlos
Fr, 15.02. 19:00 4.2° C wolkenlos
Fr, 15.02. 13:00 13.4° C wolkenlos
Fr, 15.02. 7:00 -3.0° C wolkenlos
Fr, 15.02. 1:00 -1.0° C wolkenlos
Ortszeit Temperatur Wetter
Sa, 16.02. 21:00 1.6° C wolkig
Sa, 16.02. 20:50 1.6° C wolkig
Sa, 16.02. 20:40 2.1° C wolkig
Sa, 16.02. 20:30 3.2° C wolkig
Sa, 16.02. 20:20 3.2° C wolkig
Sa, 16.02. 20:10 3.2° C wolkig
Sa, 16.02. 20:00 4.9° C wolkig
Sa, 16.02. 19:30 6.0° C wolkig
Sa, 16.02. 19:00 5.7° C wolkig
Sa, 16.02. 18:30 6.8° C wolkig
Sa, 16.02. 18:00 9.7° C wolkig
Ortszeit Relative Feuchte Sichtweite
Sa, 16.02. 19:00 74% 35 km
Sa, 16.02. 13:00 35% 55 km
Sa, 16.02. 7:00 90% 24 km
Sa, 16.02. 1:00 77% 40 km
Fr, 15.02. 19:00 77% 55 km
Fr, 15.02. 13:00 30% 50 km
Fr, 15.02. 7:00 96% 11 km
Fr, 15.02. 1:00 94% 26 km
Ortszeit Relative Feuchte Sichtweite
Sa, 16.02. 21:00 88% 45 km
Sa, 16.02. 20:50 88% -
Sa, 16.02. 20:40 86% -
Sa, 16.02. 20:30 82% 30 km
Sa, 16.02. 20:20 82% -
Sa, 16.02. 20:10 84% -
Sa, 16.02. 20:00 76% 30 km
Sa, 16.02. 19:30 72% 50 km
Sa, 16.02. 19:00 74% 35 km
Sa, 16.02. 18:30 69% 19 km
Sa, 16.02. 18:00 57% 55 km
Ortszeit Niederschlagsmenge Niederschlagsart
Sa, 16.02. 19:00 0.0 l/m2 in 12 Std. -
Sa, 16.02. 13:00 0.0 l/m2 in 6 Std. -
Sa, 16.02. 7:00 0.0 l/m2 in 12 Std. -
Sa, 16.02. 1:00 0.0 l/m2 in 6 Std. -
Fr, 15.02. 19:00 0.0 l/m2 in 12 Std. -
Fr, 15.02. 13:00 0.0 l/m2 in 6 Std. -
Fr, 15.02. 7:00 0.0 l/m2 in 12 Std. -
Fr, 15.02. 1:00 0.0 l/m2 in 6 Std. -
Ortszeit Niederschlagsmenge Niederschlagsart
Sa, 16.02. 21:00 0.0 l/m2 in 1 Std. -
Sa, 16.02. 20:50 keine Meldung -
Sa, 16.02. 20:40 keine Meldung -
Sa, 16.02. 20:30 0.0 l/m2 in 1 Std. -
Sa, 16.02. 20:20 keine Meldung -
Sa, 16.02. 20:10 keine Meldung -
Sa, 16.02. 20:00 0.0 l/m2 in 1 Std. -
Sa, 16.02. 19:30 0.0 l/m2 in 1 Std. -
Sa, 16.02. 19:00 0.0 l/m2 in 1 Std. -
Sa, 16.02. 18:30 0.0 l/m2 in 1 Std. -
Sa, 16.02. 18:00 0.0 l/m2 in 1 Std. -
Ortszeit Stärke Spitze Richtung
km/h Bft. km/h Grad Sektor
Sa, 16.02. 19:00 4 1 22 300° NW
Sa, 16.02. 13:00 7 2 22 200° S
Sa, 16.02. 7:00 4 1 18 180° S
Sa, 16.02. 1:00 7 2 15 180° S
Fr, 15.02. 19:00 0 0 11 - -
Fr, 15.02. 13:00 6 1 13 230° SW
Fr, 15.02. 7:00 2 1 6 150° SO
Fr, 15.02. 1:00 2 1 9 180° S
Ortszeit Stärke Spitze Richtung
km/h Bft. km/h Grad Sektor
Sa, 16.02. 21:00 0 0 7 - -
Sa, 16.02. 20:50 0 0 - 320° NW
Sa, 16.02. 20:40 2 1 - 190° S
Sa, 16.02. 20:30 4 1 7 220° SW
Sa, 16.02. 20:20 4 1 - 220° SW
Sa, 16.02. 20:10 4 1 - 180° S
Sa, 16.02. 20:00 2 1 6 250° W
Sa, 16.02. 19:30 4 1 4 200° S
Sa, 16.02. 19:00 4 1 7 300° NW
Sa, 16.02. 18:30 4 1 7 180° S
Sa, 16.02. 18:00 4 1 11 180° S
Ortszeit Untergrenze Bedeckung Gattung
total tief tief mittel hoch
Sa, 16.02. 19:00 10500 m 8/8 0/8 - - -
Sa, 16.02. 13:00 - 0/8 0/8 - - -
Sa, 16.02. 7:00 - 0/8 0/8 - - -
Sa, 16.02. 1:00 - 0/8 0/8 - - -
Fr, 15.02. 19:00 - 0/8 0/8 - - -
Fr, 15.02. 13:00 - 0/8 0/8 - - -
Fr, 15.02. 7:00 - 0/8 0/8 - - -
Fr, 15.02. 1:00 - 0/8 0/8 - - -
Ortszeit Bedeckungsgrad in Achtel und Wolkenuntergrenze
Sa, 16.02. 21:00 6(9000m) 8(10500m) 8(10500m)
Sa, 16.02. 20:50 6(9000m) 8(10500m) 8(10500m)
Sa, 16.02. 20:40 6(9000m) 7(10500m) 8(10500m)
Sa, 16.02. 20:30 7(10500m) 8(10500m) 8(10500m)
Sa, 16.02. 20:20 7(10500m) 8(10500m)
Sa, 16.02. 20:10 8(9000m) 8(10500m)
Sa, 16.02. 20:00 8(9000m) 8(10500m)
Sa, 16.02. 19:30 8(10500m) 8(10500m)
Sa, 16.02. 19:00 8(10500m) 8(12000m) 8(10500m)
Sa, 16.02. 18:30 8(10500m) 8(10500m)
Sa, 16.02. 18:00 8(10500m) 8(10500m)
Ortszeit Luftdruck NN (hPa) Tendenz (hPa in 3 Std.)
Sa, 16.02. 19:00 1025 + 0,1
Sa, 16.02. 13:00 1026 - 0,6
Sa, 16.02. 7:00 1027 - 1,0
Sa, 16.02. 1:00 1029 - 1,4
Fr, 15.02. 19:00 1032 - 0,7
Fr, 15.02. 13:00 1034 - 1,0
Fr, 15.02. 7:00 1035 - 0,2
Fr, 15.02. 1:00 1035 + 0,4
Ortszeit Luftdruck NN (hPa) Tendenz (hPa in 3 Std.)
Sa, 16.02. 21:00 1025 + 0,5
Sa, 16.02. 20:50 1025 keine Meldung
Sa, 16.02. 20:40 1025 keine Meldung
Sa, 16.02. 20:30 1025 + 0,7
Sa, 16.02. 20:20 1025 keine Meldung
Sa, 16.02. 20:10 1025 keine Meldung
Sa, 16.02. 20:00 1025 + 0,6
Sa, 16.02. 19:30 1025 + 0,3
Sa, 16.02. 19:00 1025 + 0,1
Sa, 16.02. 18:30 1025 - 0,5
Sa, 16.02. 18:00 1024 - 0,7
Ortszeit Schneehöhe (cm)
Sa, 16.02. 19:00 0
Sa, 16.02. 13:00 0
Sa, 16.02. 7:00 0
Sa, 16.02. 1:00 0
Fr, 15.02. 19:00 0
Fr, 15.02. 13:00 0
Fr, 15.02. 7:00 0
Fr, 15.02. 1:00 0
Ortszeit Schneehöhe (cm)
Sa, 16.02. 21:00 0
Sa, 16.02. 20:50 0
Sa, 16.02. 20:40 0
Sa, 16.02. 20:30 0
Sa, 16.02. 20:20 0
Sa, 16.02. 20:10 0
Sa, 16.02. 20:00 0
Sa, 16.02. 19:30 0
Sa, 16.02. 19:00 0
Sa, 16.02. 18:30 0
Sa, 16.02. 18:00 0
Link zu dieser Seite / Seite empfehlen

Das Wetter in ...